Lacon, IL

7:22 AM CST on December 09, 2019 (GMT -0600)
Lacon

Weather History for KC75 - October, 2019

Change the Weather History Date:

Friday, October 11, 2019

  Actual Average (WUND) Record (WUND)
Temperature  
Mean Temperature 53 °F -  
Max Temperature 68 °F - - (-1)
Min Temperature 38 °F - - (-1)
Degree Days  
Heating Degree Days 12    
Growing Degree Days 3 (Base 50)    
Moisture  
Dew Point 42 °F    
Average Humidity 78    
Maximum Humidity 95    
Minimum Humidity 52    
Precipitation  
Precipitation 0.08 in - - ()
Sea Level Pressure  
Sea Level Pressure 29.97 in    
Wind  
Wind Speed 10 mph (WSW)    
Max Wind Speed 16 mph    
Max Gust Speed 24 mph    
Visibility 9 miles    
Events Rain    
Averages and records for this station are not official NWS values.
T = Trace of Precipitation, MM = Missing Value Source: NWS Daily Summary

Daily Weather History Graph

Daily Weather History Graph

Search for Another Location

Airport or City:

Astronomy

Oct. 11, 2019 Rise Set
Actual Time 7:04 AM CDT 6:23 PM CDT
Civil Twilight 6:36 AM CDT 6:50 PM CDT
Nautical Twilight 6:04 AM CDT 7:22 PM CDT
Astronomical Twilight 5:32 AM CDT 7:54 PM CDT
Moon 5:54 PM CDT (10/11) 4:42 AM CDT (10/11)
Length of Visible Light 12h 14m
Length of Day
11h 19m
Waxing Gibbous, 96% of the Moon is Illuminated
Oct 11
Waxing Gibbous
Oct 13
Full
Oct 21
Last Quarter
Oct 27
New
Nov 4
First Quarter

Hourly Weather History & Observations

Time (CDT) Temp. Windchill Dew Point Humidity Pressure Visibility Wind Dir Wind Speed Gust Speed Precip Events Conditions
12:15 AM 66.6 °F - 63.7 °F 90% 29.83 in 10.0 mi South 4.6 mph - N/A   Overcast
12:35 AM 66.9 °F - 63.7 °F 89% 29.83 in 10.0 mi SSE 6.9 mph - N/A   Overcast
12:55 AM 66.7 °F - 63.7 °F 90% 29.83 in 10.0 mi South 9.2 mph - N/A   Overcast
1:15 AM 68.0 °F - 63.7 °F 86% 29.83 in 10.0 mi South 15.0 mph 19.6 mph N/A   Mostly Cloudy
1:35 AM 68.2 °F - 63.7 °F 85% 29.83 in 10.0 mi South 13.8 mph - N/A   Mostly Cloudy
1:55 AM 68.4 °F - 63.9 °F 85% 29.83 in 10.0 mi South 9.2 mph 17.3 mph N/A   Mostly Cloudy
2:15 AM 68.4 °F - 63.9 °F 85% 29.82 in 10.0 mi South 9.2 mph 18.4 mph N/A   Mostly Cloudy
2:35 AM 68.4 °F - 63.9 °F 85% 29.82 in 10.0 mi South 11.5 mph 17.3 mph N/A   Overcast
2:55 AM 68.4 °F - 63.9 °F 85% 29.82 in 10.0 mi South 11.5 mph 18.4 mph N/A   Overcast
3:15 AM 68.0 °F - 64.0 °F 87% 29.83 in 10.0 mi South 11.5 mph 17.3 mph N/A   Overcast
3:35 AM 67.8 °F - 63.9 °F 87% 29.82 in 10.0 mi South 10.4 mph 17.3 mph N/A   Overcast
3:55 AM 67.5 °F - 63.7 °F 88% 29.83 in 10.0 mi South 9.2 mph 16.1 mph N/A   Mostly Cloudy
4:15 AM 67.5 °F - 63.7 °F 88% 29.82 in 10.0 mi South 10.4 mph - N/A   Overcast
4:35 AM 67.3 °F - 64.0 °F 89% 29.82 in 10.0 mi SSW 6.9 mph - N/A   Overcast
4:55 AM 67.1 °F - 64.0 °F 90% 29.82 in 10.0 mi South 6.9 mph - N/A   Overcast
5:15 AM 66.7 °F - 63.7 °F 90% 29.82 in 10.0 mi South 6.9 mph - N/A   Overcast
5:35 AM 66.2 °F - 63.9 °F 92% 29.83 in 5.0 mi SSW 8.1 mph - N/A Rain Heavy Rain
5:55 AM 56.5 °F - 55.0 °F 95% 29.84 in 4.0 mi West 9.2 mph 24.2 mph 0.02 in Rain Rain
6:15 AM 54.1 °F - 52.7 °F 95% 29.87 in 7.0 mi WNW 6.9 mph 17.3 mph N/A   Overcast
6:35 AM 50.4 °F - 48.4 °F 93% 29.87 in 10.0 mi WNW 11.5 mph 17.3 mph N/A   Overcast
6:55 AM 50.0 °F - 47.7 °F 92% 29.89 in 10.0 mi WNW 9.2 mph - N/A   Overcast
7:15 AM 49.3 °F - 47.7 °F 94% 29.91 in 3.0 mi West 11.5 mph 19.6 mph N/A   Drizzle
7:35 AM 48.2 °F - 46.8 °F 95% 29.92 in 3.0 mi WNW 8.1 mph - N/A Rain Rain
7:55 AM 47.3 °F - 45.9 °F 95% 29.93 in 5.0 mi West 11.5 mph 18.4 mph 0.01 in   Light Drizzle
8:15 AM 46.0 °F 41.4 °F 44.2 °F 93% 29.93 in 10.0 mi West 9.2 mph - N/A Rain Light Rain
8:35 AM 45.9 °F 40.8 °F 44.1 °F 93% 29.93 in 10.0 mi West 10.4 mph - N/A   Overcast
8:55 AM 45.5 °F 40.3 °F 43.7 °F 93% 29.94 in 10.0 mi West 10.4 mph 16.1 mph N/A   Overcast
9:15 AM 45.3 °F 39.3 °F 43.0 °F 92% 29.95 in 10.0 mi West 12.7 mph 20.7 mph N/A   Overcast
9:35 AM 45.0 °F 39.7 °F 42.3 °F 90% 29.95 in 10.0 mi West 10.4 mph 17.3 mph N/A   Overcast
9:55 AM 44.6 °F 38.4 °F 42.1 °F 91% 29.95 in 10.0 mi West 12.7 mph 16.1 mph N/A   Overcast
10:15 AM 43.7 °F 37.3 °F 41.4 °F 91% 29.96 in 10.0 mi West 12.7 mph 23.0 mph N/A   Overcast
10:35 AM 44.6 °F 37.4 °F 41.0 °F 87% 29.96 in 10.0 mi West 16.1 mph 19.6 mph N/A   Overcast
10:55 AM 43.9 °F 39.3 °F 38.3 °F 81% 29.96 in 10.0 mi West 8.1 mph 21.9 mph N/A   Overcast
11:15 AM 43.9 °F 37.5 °F 39.2 °F 84% 29.97 in 10.0 mi West 12.7 mph 20.7 mph N/A   Overcast
11:35 AM 42.1 °F 35.7 °F 39.4 °F 90% 29.98 in 10.0 mi West 11.5 mph 19.6 mph N/A Rain Light Rain
11:55 AM 41.5 °F 34.6 °F 38.8 °F 90% 29.99 in 10.0 mi West 12.7 mph 21.9 mph 0.01 in Rain Light Rain
12:15 PM 41.2 °F 33.7 °F 38.3 °F 89% 30.00 in 7.0 mi WNW 13.8 mph 19.6 mph N/A Rain Light Rain
12:35 PM 41.9 °F 34.6 °F 37.9 °F 86% 30.00 in 10.0 mi West 13.8 mph 19.6 mph N/A   Overcast
12:55 PM 41.4 °F 33.6 °F 38.1 °F 88% 30.01 in 7.0 mi West 15.0 mph - 0.01 in Rain Light Rain
1:15 PM 41.4 °F 34.0 °F 38.3 °F 89% 30.01 in 5.0 mi West 13.8 mph 19.6 mph N/A Rain Light Rain
1:35 PM 41.0 °F 35.2 °F 37.9 °F 89% 30.00 in 7.0 mi West 9.2 mph 17.3 mph N/A Rain Rain
1:55 PM 41.2 °F 35.5 °F 38.1 °F 89% 30.00 in 10.0 mi West 9.2 mph 16.1 mph 0.03 in Rain Light Rain
2:15 PM 41.9 °F 37.5 °F 37.6 °F 85% 30.00 in 10.0 mi West 6.9 mph - N/A   Overcast
2:35 PM 42.8 °F 37.0 °F 38.1 °F 84% 30.00 in 10.0 mi West 10.4 mph - N/A   Overcast
2:55 PM 43.0 °F 36.0 °F 36.0 °F 76% 30.00 in 10.0 mi West 13.8 mph 21.9 mph N/A   Overcast
3:15 PM 43.7 °F 38.6 °F 35.2 °F 72% 30.00 in 10.0 mi WNW 9.2 mph 19.6 mph N/A   Overcast
3:35 PM 44.2 °F 38.8 °F 35.6 °F 72% 30.00 in 10.0 mi WNW 10.4 mph 18.4 mph N/A   Overcast
3:55 PM 44.8 °F 39.0 °F 33.6 °F 65% 30.01 in 10.0 mi WNW 11.5 mph 23.0 mph N/A   Overcast
4:15 PM 44.2 °F 37.6 °F 32.9 °F 64% 30.02 in 10.0 mi WNW 13.8 mph 18.4 mph N/A   Mostly Cloudy
4:35 PM 43.9 °F 38.8 °F 31.6 °F 62% 30.03 in 10.0 mi West 9.2 mph 23.0 mph N/A   Mostly Cloudy
4:55 PM 44.2 °F 38.0 °F 31.8 °F 62% 30.03 in 10.0 mi West 12.7 mph 19.6 mph N/A   Overcast
5:15 PM 43.7 °F 37.3 °F 31.1 °F 61% 30.04 in 10.0 mi West 12.7 mph 19.6 mph N/A   Overcast
5:35 PM 43.7 °F 38.6 °F 31.5 °F 62% 30.05 in 10.0 mi West 9.2 mph - N/A   Overcast
5:55 PM 43.5 °F 37.1 °F 30.0 °F 59% 30.05 in 10.0 mi West 12.7 mph 19.6 mph N/A   Overcast
6:15 PM 42.6 °F 36.3 °F 29.1 °F 59% 30.06 in 10.0 mi West 11.5 mph 17.3 mph N/A   Overcast
6:35 PM 42.3 °F 36.3 °F 28.6 °F 58% 30.07 in 10.0 mi West 10.4 mph 19.6 mph N/A   Overcast
6:55 PM 42.3 °F 36.3 °F 28.9 °F 59% 30.08 in 10.0 mi West 10.4 mph 17.3 mph N/A   Overcast
7:15 PM 42.3 °F 36.3 °F 29.7 °F 61% 30.08 in 10.0 mi West 10.4 mph - N/A   Overcast
7:35 PM 42.3 °F 35.9 °F 29.1 °F 60% 30.09 in 10.0 mi West 11.5 mph 18.4 mph N/A   Overcast
7:55 PM 41.2 °F 36.0 °F 28.8 °F 61% 30.09 in 10.0 mi West 8.1 mph - N/A   Mostly Cloudy
8:15 PM 40.8 °F 34.5 °F 28.4 °F 61% 30.10 in 10.0 mi West 10.4 mph 19.6 mph N/A   Mostly Cloudy
8:35 PM 41.0 °F 35.2 °F 27.5 °F 59% 30.11 in 10.0 mi West 9.2 mph - N/A   Overcast
8:55 PM 41.0 °F 35.8 °F 26.8 °F 57% 30.11 in 10.0 mi West 8.1 mph - N/A   Overcast
9:15 PM 41.0 °F 35.2 °F 26.4 °F 56% 30.10 in 10.0 mi West 9.2 mph - N/A   Overcast
9:35 PM 41.0 °F 33.5 °F 26.6 °F 57% 30.11 in 10.0 mi WNW 13.8 mph 19.6 mph N/A   Overcast
9:55 PM 40.5 °F 34.6 °F 24.3 °F 52% 30.11 in 10.0 mi West 9.2 mph 21.9 mph N/A   Overcast
10:15 PM 39.6 °F 34.0 °F 23.9 °F 54% 30.11 in 10.0 mi West 8.1 mph - N/A   Scattered Clouds
10:35 PM 39.7 °F 35.6 °F 24.4 °F 54% 30.11 in 10.0 mi West 5.8 mph - N/A   Mostly Cloudy
10:55 PM 39.4 °F 34.5 °F 25.9 °F 58% 30.11 in 10.0 mi WSW 6.9 mph - N/A   Overcast
11:15 PM 38.7 °F 34.3 °F 26.2 °F 61% 30.10 in 10.0 mi WSW 5.8 mph - N/A   Scattered Clouds
11:35 PM 38.5 °F 33.4 °F 26.8 °F 63% 30.10 in 10.0 mi WSW 6.9 mph - N/A   Mostly Cloudy
11:55 PM 38.5 °F 32.1 °F 27.3 °F 64% 30.10 in 10.0 mi WSW 9.2 mph - N/A   Overcast